Weather History for KMKE - April, 2013

Change the Weather History Date:

Friday, April 5, 2013

  Actual Average Record
Temperature  
Mean Temperature 38 °F 42 °F  
Max Temperature 42 °F 50 °F 79 °F (1929)
Min Temperature 33 °F 34 °F 14 °F (1881)
Degree Days  
Heating Degree Days 27 23  
Month to date heating degree days 146 120  
Since 1 July heating degree days 5946 6029  
Cooling Degree Days 0 0  
Month to date cooling degree days 0 0  
Year to date cooling degree days 0 0  
Moisture  
Dew Point 26 °F    
Average Humidity 69    
Maximum Humidity 89    
Minimum Humidity 48    
Precipitation  
Precipitation 0.00 in 0.11 in 1.00 in (1982)
Month to date precipitation 0.00 0.56  
Year to date precipitation 7.83 6.24  
Snow  
Snow 0.00 in 0.10 in 8.60 in (1982)
Month to date snowfall 0.0 0.6  
Since 1 July snowfall 44.6 45.4  
Snow Depth 0.00 in    
Sea Level Pressure  
Sea Level Pressure 30.20 in    
Wind  
Wind Speed 10 mph (NE)    
Max Wind Speed 20 mph    
Max Gust Speed 26 mph    
Visibility 10 miles    
Events      
T = Trace of Precipitation, MM = Missing Value Source: NWS Daily Summary

Daily Weather History Graph

Daily Weather History Graph

Search for Another Location

Airport or City:

Trip Planner

Search our weather history database for the weather conditions in past years. The results will help you decide how hot, cold, wet, or windy it might be!

Date:

Astronomy

Apr. 05, 2013 Rise Set
Actual Time 6:26 AM CDT 7:22 PM CDT
Civil Twilight 5:57 AM CDT 7:51 PM CDT
Nautical Twilight 5:23 AM CDT 8:26 PM CDT
Astronomical Twilight 4:47 AM CDT 9:02 PM CDT
Moon 3:40 AM CDT (4/5) 2:40 PM CDT (4/5)
Length of Visible Light 13h 54m
Length of Day
12h 56m
Waning Crescent, 23% of the Moon is Illuminated
Apr 5
Waning Crescent
Apr 10
New
Apr 18
First Quarter
Apr 25
Full
May 2
Last Quarter

Hourly Weather History & Observations

Time (CDT) Temp. Windchill Dew Point Humidity Pressure Visibility Wind Dir Wind Speed Gust Speed Precip Events Conditions
12:52 AM 43.0 °F 36.8 °F 26.1 °F 51% 30.04 in 10.0 mi NNW 11.5 mph 19.6 mph N/A   Partly Cloudy
1:52 AM 37.0 °F 29.3 °F 30.0 °F 76% 30.08 in 10.0 mi North 11.5 mph 23.0 mph N/A   Partly Cloudy
2:52 AM 36.0 °F 28.5 °F 30.0 °F 79% 30.09 in 10.0 mi NNE 10.4 mph - N/A   Partly Cloudy
3:52 AM 35.1 °F 28.6 °F 30.0 °F 82% 30.12 in 10.0 mi NNE 8.1 mph - N/A   Partly Cloudy
4:52 AM 35.1 °F 30.1 °F 30.0 °F 82% 30.14 in 10.0 mi North 5.8 mph - N/A   Partly Cloudy
5:52 AM 34.0 °F 28.0 °F 30.0 °F 85% 30.16 in 10.0 mi North 6.9 mph - N/A   Partly Cloudy
6:52 AM 34.0 °F 28.8 °F 28.9 °F 82% 30.19 in 10.0 mi North 5.8 mph - N/A   Partly Cloudy
7:52 AM 36.0 °F 28.5 °F 30.9 °F 82% 30.22 in 10.0 mi NNE 10.4 mph - N/A   Scattered Clouds
8:52 AM 36.0 °F 28.5 °F 30.0 °F 79% 30.24 in 10.0 mi NNE 10.4 mph - N/A   Scattered Clouds
9:13 AM 37.4 °F 28.9 °F 28.4 °F 70% 30.23 in 10.0 mi NE 13.8 mph 18.4 mph N/A   Mostly Cloudy
9:26 AM 37.4 °F 29.3 °F 28.4 °F 70% 30.23 in 10.0 mi NE 12.7 mph - N/A   Mostly Cloudy
9:52 AM 39.0 °F 30.3 °F 27.0 °F 62% 30.26 in 10.0 mi NNE 16.1 mph 21.9 mph N/A   Mostly Cloudy
10:52 AM 39.2 °F 31.6 °F 26.6 °F 61% 30.26 in 10.0 mi NE 12.7 mph 20.7 mph N/A   Mostly Cloudy
11:52 AM 39.0 °F 31.4 °F 25.0 °F 57% 30.28 in 10.0 mi NE 12.7 mph 18.4 mph N/A   Mostly Cloudy
12:52 PM 39.0 °F 32.3 °F 25.0 °F 57% 30.26 in 10.0 mi ENE 10.4 mph - N/A   Scattered Clouds
1:52 PM 37.9 °F 30.9 °F 24.1 °F 57% 30.26 in 10.0 mi NE 10.4 mph - N/A   Mostly Cloudy
2:52 PM 37.9 °F 31.5 °F 21.9 °F 53% 30.24 in 10.0 mi ENE 9.2 mph - N/A   Mostly Cloudy
3:52 PM 37.0 °F 30.4 °F 19.9 °F 50% 30.23 in 10.0 mi ENE 9.2 mph - N/A   Mostly Cloudy
4:52 PM 36.0 °F 28.5 °F 21.0 °F 55% 30.24 in 10.0 mi NE 10.4 mph - N/A   Mostly Cloudy
5:52 PM 35.1 °F 27.4 °F 23.0 °F 61% 30.24 in 10.0 mi ENE 10.4 mph - N/A   Mostly Cloudy
6:52 PM 34.0 °F 26.6 °F 24.1 °F 67% 30.24 in 10.0 mi NE 9.2 mph - N/A   Mostly Cloudy
7:52 PM 34.0 °F 26.6 °F 24.1 °F 67% 30.23 in 10.0 mi ENE 9.2 mph - N/A   Overcast
8:52 PM 34.0 °F 26.6 °F 21.0 °F 59% 30.23 in 10.0 mi ENE 9.2 mph - N/A   Overcast
9:52 PM 34.0 °F 26.0 °F 21.9 °F 61% 30.21 in 10.0 mi East 10.4 mph - N/A   Overcast
10:52 PM 35.1 °F 27.9 °F 23.0 °F 61% 30.20 in 10.0 mi ENE 9.2 mph - N/A   Overcast
11:52 PM 35.1 °F 27.4 °F 23.0 °F 61% 30.19 in 10.0 mi ENE 10.4 mph - N/A   Overcast